Tracking 25656 objects as of 21-May-2022
HD Live streaming from Space Station
objects crossing your sky now

COSMOS 1694

Track COSMOS 1694 now!
10-day predictions
COSMOS 1694 is classified as:


NORAD ID: 16142
Int'l Code: 1985-094E
Perigee: 1,406.4 km
Apogee: 1,423.5 km
Inclination: 82.6 °
Period: 114.0 minutes
Semi major axis: 7785 km
RCS: 0.2341 m2 (medium)
Launch date: October 9, 1985
Source: Commonwealth of Independent States (former USSR) (CIS)
Launch site: PLESETSK MISSILE AND SPACE COMPLEX (PKMTR)
aabbcc
Your satellite tracking list
Your tracking list is empty




NASA's NSSDC Master Catalog

Two Line Element Set (TLE):
1 16142U 85094E   22141.47192788  .00000006  00000-0 -24782-4 0  9990
2 16142  82.6055 130.0538 0010992 204.6335 283.5815 12.63678962688752
Source of the keplerian elements: AFSPC